Regional Weather Roundup
Issued by NWS

Home | Current Version | Previous Version | Graphics & Text | Print | Product List | Glossary On
Versions: 1 2 3 4 5 6 7 8 9 10 11 12 13 14 15 16 17 18 19 20 21 22 23 24 25 26 27 28 29 30 31 32 33 34 35 36 37 38 39 40 41 42 43 44 45 46 47 48 49 50
000
ASUS45 KBOI 300610
RWRID
WEATHER ROUNDUP FOR IDAHO
NATIONAL WEATHER SERVICE BOISE ID
1200 AM MDT MON MAR 30 2015

NOTE: "FAIR" INDICATES FEW OR NO CLOUDS BELOW 12000 FEET
WITH NO SIGNIFICANT WEATHER AND/OR OBSTRUCTIONS TO VISIBILITY

IDZ012-014-300700-
SOUTHWEST IDAHO


CITY           SKY/WX    TMP DP  RH WIND       PRES   REMARKS
BOISE          CLEAR     49  31  49 SE9       30.17S
CALDWELL       CLEAR     45  27  49 CALM      30.17S
MOUNTAIN HOME  CLEAR     48  28  44 N1        30.17S
$$

IDZ016-017-300700-
SOUTHCENTRAL IDAHO


CITY           SKY/WX    TMP DP  RH WIND       PRES   REMARKS
BURLEY         CLEAR     41  24  51 NW3       30.19R
JEROME         CLEAR     48  19  31 S6        30.20S
TWIN FALLS     CLEAR     44  19  36 S12       30.20R
$$

IDZ019>023-300700-
SOUTHEAST IDAHO


CITY           SKY/WX    TMP DP  RH WIND       PRES   REMARKS
IDAHO FALLS    PTCLDY    45  20  36 S9        30.20S
POCATELLO      CLEAR     42  17  36 S12       30.20S
REXBURG        PTCLDY    47  16  29 S6        30.19S
$$

IDZ006-010-011-018-031-032-300700-
CENTRAL IDAHO MOUNTAINS


CITY           SKY/WX    TMP DP  RH WIND       PRES   REMARKS
MCCALL         MOCLDY    38  30  73 CALM      30.21S
HAILEY         CLEAR     41  28  60 NW7       30.23S
STANLEY          N/A     32  23  69 VRB5      30.27S WCI  27
SALMON         PTCLDY    39  27  60 CALM      30.18S
CHALLIS        CLEAR     44  24  45 S5        30.20S
$$

IDZ002-004-006-007-026-300700-
NORTHERN IDAHO


CITY           SKY/WX    TMP DP  RH WIND       PRES   REMARKS
LEWISTON       PTCLDY    52  41  66 S6        30.14S
LOWELL           N/A     44  41  89 N5        30.21R
COEUR D`ALENE  CLEAR     45  37  76 CALM      30.15S
MULLAN PASS    PTCLDY    38  27  64 VRB7      30.17R WCI  33
$$



USA.gov is the U.S. government's official web portal to all federal, state and local government web resources and services.